QPF
0.00 0.00 0.00 0.00 0.00 0.00 0.00 0.00 0.00 0.00 0.00 0.00 0.00 0.00 0.00 0.01 0.00 0.00 0.00 0.00 0.00 0.00 0.00 0.00 0.00 0.00 0.00 0.00 0.01 0.01 0.01 0.02 0.03 0.04 0.05 0.07 0.09 0.09 0.08 0.08 0.08 0.09 0.10 0.10
0.00 0.00 0.00 0.00 0.00 0.00 0.00 0.00 0.00 0.00 0.00 0.00 0.00 0.00 0.00 0.00 0.00 0.00 0.00 0.00 0.00 0.00 0.00 0.00 0.00 0.00 0.00 0.00 0.00 0.00 0.01 0.02 0.02 0.03 0.05 0.06 0.07 0.07 0.07 0.07 0.07 0.08 0.08 0.08
0.00 0.00 0.00 0.00 0.00 0.00 0.00 0.00 0.00 0.00 0.00 0.00 0.00 0.00 0.00 0.00 0.00 0.00 0.00 0.01 0.01 0.00 0.00 0.00 0.00 0.00 0.00 0.00 0.00 0.00 0.01 0.02 0.02 0.02 0.03 0.04 0.04 0.05 0.05 0.06 0.07 0.07 0.07 0.07
0.00 0.00 0.00 0.00 0.00 0.00 0.00 0.00 0.00 0.00 0.00 0.00 0.01 0.00 0.00 0.00 0.00 0.00 0.00 0.01 0.03 0.00 0.00 0.00 0.00 0.00 0.00 0.01 0.01 0.00 0.01 0.01 0.01 0.01 0.02 0.02 0.03 0.04 0.05 0.05 0.06 0.06 0.06 0.06
0.00 0.00 0.00 0.00 0.00 0.00 0.00 0.00 0.00 0.00 0.00 0.00 0.00 0.00 0.00 0.00 0.00 0.01 0.00 0.00 0.00 0.00 0.00 0.01 0.01 0.01 0.01 0.01 0.01 0.00 0.01 0.01 0.01 0.01 0.02 0.03 0.03 0.04 0.04 0.04 0.04 0.05 0.05 0.05
0.00 0.00 0.00 0.00 0.00 0.00 0.00 0.00 0.00 0.00 0.00 0.00 0.00 0.00 0.01 0.01 0.01 0.00 0.00 0.00 0.00 0.00 0.00 0.01 0.02 0.02 0.01 0.01 0.01 0.01 0.01 0.01 0.01 0.02 0.03 0.04 0.04 0.03 0.04 0.04 0.04 0.04 0.04 0.04
0.00 0.00 0.00 0.00 0.00 0.00 0.00 0.02 0.02 0.00 0.00 0.00 0.00 0.00 0.00 0.00 0.01 0.00 0.00 0.00 0.01 0.01 0.01 0.02 0.02 0.02 0.02 0.03 0.03 0.04 0.03 0.03 0.03 0.04 0.05 0.05 0.05 0.03 0.03 0.03 0.04 0.04 0.04 0.04
0.00 0.00 0.01 0.01 0.01 0.01 0.02 0.01 0.02 0.01 0.00 0.00 0.00 0.00 0.00 0.00 0.00 0.00 0.00 0.00 0.01 0.01 0.02 0.02 0.02 0.02 0.03 0.03 0.04 0.04 0.03 0.03 0.03 0.04 0.04 0.05 0.04 0.03 0.02 0.03 0.03 0.03 0.03 0.03
0.00 0.00 0.01 0.01 0.02 0.01 0.01 0.01 0.01 0.00 0.00 0.00 0.00 0.00 0.00 0.00 0.00 0.00 0.00 0.00 0.01 0.01 0.01 0.02 0.02 0.02 0.03 0.03 0.03 0.03 0.03 0.03 0.04 0.04 0.04 0.04 0.03 0.02 0.02 0.02 0.02 0.02 0.02 0.02
0.00 0.00 0.00 0.01 0.01 0.01 0.00 0.00 0.00 0.00 0.00 0.00 0.00 0.00 0.00 0.00 0.00 0.00 0.01 0.01 0.01 0.01 0.01 0.02 0.02 0.02 0.03 0.03 0.03 0.03 0.03 0.03 0.03 0.03 0.03 0.03 0.02 0.01 0.02 0.02 0.02 0.02 0.02 0.02
0.01 0.02 0.01 0.01 0.00 0.00 0.00 0.00 0.00 0.00 0.00 0.00 0.00 0.00 0.00 0.00 0.00 0.00 0.01 0.01 0.01 0.02 0.02 0.02 0.02 0.02 0.03 0.03 0.03 0.03 0.04 0.04 0.04 0.04 0.03 0.03 0.03 0.03 0.03 0.03 0.03 0.03 0.02 0.02
0.02 0.02 0.02 0.01 0.00 0.00 0.00 0.00 0.00 0.00 0.00 0.01 0.01 0.01 0.01 0.01 0.01 0.01 0.01 0.02 0.02 0.02 0.02 0.02 0.02 0.02 0.03 0.03 0.03 0.03 0.04 0.03 0.03 0.02 0.02 0.02 0.03 0.03 0.04 0.03 0.02 0.02 0.02 0.02
0.02 0.01 0.01 0.01 0.00 0.00 0.00 0.00 0.00 0.00 0.00 0.00 0.01 0.01 0.01 0.01 0.01 0.01 0.01 0.01 0.01 0.02 0.03 0.03 0.03 0.03 0.03 0.03 0.03 0.03 0.02 0.02 0.02 0.01 0.01 0.01 0.01 0.02 0.02 0.02 0.02 0.02 0.02 0.03
0.03 0.02 0.01 0.01 0.01 0.01 0.01 0.01 0.01 0.01 0.01 0.01 0.01 0.01 0.01 0.01 0.01 0.01 0.01 0.00 0.00 0.01 0.02 0.02 0.03 0.03 0.03 0.03 0.03 0.03 0.02 0.02 0.02 0.02 0.02 0.02 0.02 0.01 0.02 0.02 0.02 0.02 0.02 0.03
0.08 0.04 0.02 0.01 0.02 0.03 0.02 0.01 0.02 0.03 0.04 0.04 0.02 0.01 0.01 0.02 0.03 0.02 0.02 0.02 0.02 0.03 0.02 0.02 0.02 0.02 0.01 0.01 0.02 0.02 0.02 0.02 0.02 0.02 0.03 0.03 0.02 0.02 0.02 0.03 0.03 0.02 0.02 0.03
0.06 0.05 0.03 0.02 0.03 0.04 0.03 0.02 0.03 0.03 0.03 0.03 0.03 0.03 0.03 0.04 0.04 0.04 0.05 0.05 0.04 0.04 0.04 0.02 0.02 0.01 0.01 0.01 0.01 0.02 0.02 0.03 0.03 0.03 0.04 0.04 0.04 0.04 0.04 0.05 0.05 0.04 0.03 0.03
0.05 0.05 0.04 0.03 0.03 0.03 0.02 0.02 0.03 0.02 0.02 0.02 0.02 0.03 0.04 0.06 0.07 0.07 0.05 0.05 0.06 0.07 0.08 0.06 0.03 0.02 0.01 0.01 0.01 0.01 0.02 0.02 0.03 0.04 0.04 0.05 0.05 0.06 0.06 0.06 0.06 0.06 0.06 0.05
0.08 0.06 0.04 0.04 0.03 0.03 0.03 0.03 0.03 0.03 0.04 0.03 0.02 0.02 0.03 0.05 0.06 0.06 0.05 0.04 0.03 0.03 0.03 0.03 0.03 0.03 0.01 0.01 0.01 0.01 0.01 0.01 0.01 0.01 0.02 0.03 0.03 0.04 0.04 0.05 0.05 0.06 0.06 0.06
0.06 0.04 0.03 0.04 0.03 0.02 0.03 0.04 0.05 0.05 0.05 0.04 0.04 0.04 0.03 0.03 0.03 0.03 0.04 0.04 0.03 0.03 0.02 0.01 0.01 0.01 0.01 0.01 0.01 0.01 0.01 0.01 0.00 0.01 0.01 0.01 0.01 0.01 0.01 0.02 0.02 0.02 0.03 0.03
0.03 0.04 0.03 0.03 0.05 0.06 0.05 0.04 0.04 0.05 0.06 0.06 0.06 0.06 0.06 0.04 0.03 0.03 0.03 0.04 0.04 0.04 0.03 0.01 0.01 0.01 0.01 0.01 0.01 0.00 0.01 0.01 0.01 0.01 0.01 0.01 0.01 0.01 0.01 0.01 0.02 0.02 0.02 0.02
0.04 0.05 0.04 0.04 0.05 0.07 0.08 0.06 0.05 0.05 0.04 0.04 0.04 0.04 0.05 0.05 0.05 0.04 0.04 0.05 0.04 0.03 0.03 0.03 0.02 0.02 0.01 0.01 0.01 0.00 0.00 0.00 0.01 0.01 0.01 0.01 0.01 0.01 0.02 0.02 0.02 0.02 0.02 0.02
0.08 0.07 0.05 0.05 0.07 0.09 0.09 0.08 0.06 0.05 0.05 0.06 0.05 0.04 0.04 0.04 0.04 0.04 0.04 0.04 0.04 0.03 0.02 0.02 0.02 0.02 0.01 0.01 0.01 0.00 0.01 0.01 0.01 0.01 0.01 0.01 0.02 0.02 0.02 0.02 0.02 0.02 0.02 0.01
0.09 0.09 0.08 0.09 0.08 0.08 0.08 0.07 0.07 0.07 0.06 0.06 0.07 0.10 0.08 0.06 0.06 0.05 0.04 0.03 0.02 0.02 0.02 0.02 0.02 0.02 0.02 0.01 0.01 0.01 0.01 0.01 0.01 0.02 0.02 0.02 0.02 0.02 0.02 0.01 0.01 0.01 0.01 0.01
0.10 0.10 0.09 0.11 0.09 0.07 0.07 0.07 0.07 0.06 0.06 0.07 0.08 0.07 0.06 0.05 0.04 0.03 0.03 0.02 0.01 0.01 0.01 0.01 0.01 0.01 0.01 0.01 0.01 0.02 0.01 0.02 0.02 0.02 0.03 0.03 0.03 0.03 0.03 0.02 0.02 0.02 0.01 0.01
0.09 0.09 0.08 0.09 0.09 0.08 0.07 0.06 0.04 0.03 0.03 0.03 0.06 0.09 0.07 0.04 0.03 0.02 0.02 0.02 0.01 0.01 0.01 0.01 0.01 0.00 0.00 0.01 0.02 0.02 0.02 0.02 0.02 0.02 0.02 0.03 0.03 0.03 0.03 0.03 0.02 0.02 0.02 0.01
0.08 0.08 0.08 0.08 0.08 0.07 0.06 0.05 0.05 0.04 0.03 0.03 0.04 0.08 0.11 0.10 0.06 0.03 0.03 0.02 0.02 0.01 0.01 0.02 0.01 0.01 0.01 0.01 0.01 0.01 0.02 0.02 0.02 0.02 0.02 0.02 0.02 0.02 0.02 0.02 0.02 0.02 0.02 0.02
0.08 0.07 0.07 0.07 0.06 0.05 0.04 0.04 0.05 0.04 0.04 0.04 0.03 0.03 0.05 0.07 0.06 0.04 0.03 0.03 0.02 0.02 0.02 0.02 0.01 0.01 0.01 0.01 0.01 0.01 0.01 0.01 0.01 0.02 0.02 0.02 0.02 0.02 0.02 0.02 0.02 0.03 0.03 0.03
MSLP
1009.30 1009.37 1009.43 1009.49 1009.55 1009.58 1009.58 1009.50 1009.32 1009.03 1008.62 1008.11 1007.54 1006.97 1006.46 1006.06 1005.83 1005.78 1005.92 1006.22 1006.66 1007.19 1007.76 1008.33 1008.87 1009.37 1009.82 1010.23 1010.60 1010.95 1011.29 1011.61 1011.91 1012.20 1012.47 1012.72 1012.95 1013.18 1013.42 1013.66 1013.92 1014.20 1014.50 1014.79
1010.07 1010.01 1009.87 1009.67 1009.44 1009.18 1008.91 1008.63 1008.32 1007.98 1007.61 1007.21 1006.79 1006.39 1006.03 1005.74 1005.55 1005.50 1005.57 1005.79 1006.12 1006.56 1007.06 1007.61 1008.17 1008.73 1009.27 1009.78 1010.24 1010.66 1011.04 1011.39 1011.69 1011.96 1012.22 1012.46 1012.70 1012.94 1013.21 1013.49 1013.79 1014.11 1014.42 1014.72
1010.88 1010.70 1010.39 1009.96 1009.47 1008.95 1008.43 1007.95 1007.51 1007.12 1006.77 1006.46 1006.18 1005.92 1005.69 1005.50 1005.37 1005.30 1005.33 1005.46 1005.70 1006.04 1006.47 1006.99 1007.56 1008.16 1008.77 1009.35 1009.90 1010.39 1010.81 1011.18 1011.48 1011.75 1011.99 1012.22 1012.46 1012.72 1013.01 1013.32 1013.66 1014.00 1014.34 1014.64
1011.56 1011.28 1010.83 1010.22 1009.52 1008.79 1008.07 1007.43 1006.89 1006.46 1006.14 1005.91 1005.75 1005.62 1005.52 1005.43 1005.36 1005.31 1005.31 1005.37 1005.52 1005.78 1006.14 1006.61 1007.17 1007.78 1008.42 1009.06 1009.65 1010.18 1010.64 1011.01 1011.32 1011.57 1011.79 1012.01 1012.25 1012.51 1012.82 1013.16 1013.52 1013.89 1014.24 1014.55
1011.93 1011.59 1011.04 1010.31 1009.47 1008.59 1007.75 1007.00 1006.40 1005.95 1005.67 1005.53 1005.49 1005.51 1005.54 1005.57 1005.58 1005.57 1005.56 1005.59 1005.68 1005.87 1006.16 1006.57 1007.09 1007.69 1008.33 1008.97 1009.57 1010.11 1010.57 1010.94 1011.23 1011.46 1011.66 1011.86 1012.08 1012.35 1012.66 1013.01 1013.39 1013.77 1014.13 1014.45
1011.91 1011.53 1010.93 1010.14 1009.23 1008.27 1007.36 1006.57 1005.96 1005.54 1005.33 1005.29 1005.38 1005.55 1005.73 1005.89 1006.01 1006.07 1006.10 1006.13 1006.19 1006.33 1006.57 1006.92 1007.37 1007.92 1008.52 1009.13 1009.71 1010.22 1010.65 1010.99 1011.24 1011.44 1011.61 1011.78 1011.98 1012.23 1012.54 1012.90 1013.28 1013.67 1014.04 1014.37
1011.51 1011.11 1010.49 1009.69 1008.77 1007.81 1006.90 1006.12 1005.53 1005.18 1005.05 1005.13 1005.36 1005.68 1006.03 1006.34 1006.59 1006.77 1006.87 1006.94 1007.01 1007.13 1007.32 1007.61 1008.00 1008.47 1009.00 1009.54 1010.06 1010.51 1010.88 1011.17 1011.38 1011.53 1011.66 1011.79 1011.97 1012.20 1012.49 1012.83 1013.22 1013.61 1013.98 1014.31
1010.84 1010.43 1009.83 1009.06 1008.17 1007.25 1006.38 1005.66 1005.13 1004.86 1004.83 1005.02 1005.39 1005.87 1006.38 1006.85 1007.26 1007.57 1007.78 1007.92 1008.03 1008.15 1008.32 1008.56 1008.88 1009.27 1009.71 1010.17 1010.59 1010.97 1011.26 1011.48 1011.63 1011.73 1011.81 1011.90 1012.04 1012.24 1012.51 1012.83 1013.20 1013.58 1013.95 1014.29
1010.08 1009.68 1009.11 1008.39 1007.56 1006.71 1005.92 1005.26 1004.82 1004.62 1004.68 1004.97 1005.47 1006.07 1006.73 1007.36 1007.92 1008.37 1008.71 1008.95 1009.13 1009.28 1009.45 1009.65 1009.91 1010.22 1010.57 1010.92 1011.25 1011.53 1011.74 1011.89 1011.97 1012.01 1012.04 1012.09 1012.19 1012.35 1012.59 1012.89 1013.23 1013.59 1013.96 1014.30
1009.42 1009.04 1008.52 1007.86 1007.11 1006.34 1005.62 1005.04 1004.66 1004.52 1004.64 1005.01 1005.59 1006.29 1007.06 1007.82 1008.51 1009.09 1009.56 1009.91 1010.17 1010.37 1010.56 1010.75 1010.96 1011.20 1011.46 1011.72 1011.95 1012.14 1012.27 1012.34 1012.36 1012.35 1012.34 1012.35 1012.41 1012.54 1012.74 1013.00 1013.31 1013.66 1014.01 1014.34
1009.02 1008.67 1008.20 1007.61 1006.94 1006.24 1005.59 1005.07 1004.73 1004.63 1004.77 1005.17 1005.78 1006.53 1007.36 1008.20 1008.99 1009.69 1010.27 1010.72 1011.06 1011.33 1011.54 1011.73 1011.91 1012.10 1012.29 1012.47 1012.61 1012.72 1012.78 1012.79 1012.76 1012.71 1012.67 1012.65 1012.68 1012.78 1012.94 1013.18 1013.46 1013.77 1014.10 1014.41
1008.93 1008.62 1008.21 1007.69 1007.09 1006.46 1005.86 1005.37 1005.05 1004.95 1005.08 1005.46 1006.05 1006.80 1007.64 1008.52 1009.36 1010.13 1010.79 1011.33 1011.75 1012.07 1012.33 1012.53 1012.70 1012.85 1012.99 1013.11 1013.19 1013.24 1013.25 1013.22 1013.15 1013.08 1013.01 1012.98 1012.99 1013.07 1013.21 1013.42 1013.67 1013.96 1014.26 1014.54
1009.11 1008.85 1008.49 1008.03 1007.50 1006.92 1006.37 1005.90 1005.57 1005.44 1005.53 1005.85 1006.39 1007.09 1007.91 1008.77 1009.63 1010.43 1011.15 1011.75 1012.23 1012.61 1012.90 1013.12 1013.30 1013.44 1013.54 1013.62 1013.66 1013.67 1013.65 1013.59 1013.52 1013.44 1013.37 1013.33 1013.34 1013.41 1013.54 1013.73 1013.97 1014.23 1014.49 1014.75
1009.44 1009.22 1008.91 1008.51 1008.03 1007.50 1006.98 1006.52 1006.18 1006.01 1006.05 1006.30 1006.76 1007.40 1008.16 1008.99 1009.83 1010.64 1011.37 1012.01 1012.54 1012.96 1013.29 1013.54 1013.73 1013.86 1013.95 1014.01 1014.03 1014.03 1013.99 1013.93 1013.85 1013.78 1013.72 1013.70 1013.72 1013.80 1013.93 1014.11 1014.33 1014.57 1014.81 1015.04
1009.76 1009.58 1009.31 1008.96 1008.53 1008.04 1007.55 1007.10 1006.76 1006.56 1006.55 1006.75 1007.14 1007.70 1008.39 1009.17 1009.98 1010.78 1011.52 1012.18 1012.73 1013.19 1013.55 1013.82 1014.03 1014.17 1014.26 1014.31 1014.33 1014.31 1014.27 1014.22 1014.15 1014.10 1014.06 1014.06 1014.10 1014.19 1014.33 1014.52 1014.73 1014.96 1015.18 1015.38
1009.98 1009.81 1009.58 1009.26 1008.86 1008.41 1007.96 1007.54 1007.21 1007.01 1006.98 1007.13 1007.47 1007.98 1008.62 1009.35 1010.13 1010.90 1011.64 1012.30 1012.88 1013.35 1013.74 1014.03 1014.25 1014.40 1014.50 1014.55 1014.56 1014.55 1014.51 1014.46 1014.42 1014.38 1014.36 1014.38 1014.44 1014.55 1014.70 1014.89 1015.10 1015.32 1015.53 1015.71
1010.05 1009.89 1009.66 1009.36 1008.99 1008.58 1008.17 1007.79 1007.50 1007.32 1007.30 1007.45 1007.77 1008.25 1008.86 1009.56 1010.31 1011.06 1011.78 1012.44 1013.02 1013.51 1013.90 1014.21 1014.43 1014.59 1014.69 1014.73 1014.75 1014.73 1014.69 1014.65 1014.61 1014.58 1014.58 1014.61 1014.69 1014.80 1014.96 1015.15 1015.36 1015.58 1015.77 1015.94
1010.05 1009.85 1009.61 1009.31 1008.97 1008.60 1008.23 1007.91 1007.67 1007.54 1007.56 1007.73 1008.07 1008.55 1009.14 1009.82 1010.55 1011.28 1011.98 1012.63 1013.20 1013.68 1014.07 1014.38 1014.60 1014.75 1014.84 1014.88 1014.88 1014.85 1014.80 1014.75 1014.70 1014.66 1014.66 1014.69 1014.75 1014.87 1015.02 1015.20 1015.41 1015.61 1015.80 1015.96
1010.08 1009.84 1009.57 1009.26 1008.93 1008.58 1008.27 1008.00 1007.83 1007.77 1007.84 1008.06 1008.42 1008.91 1009.51 1010.17 1010.88 1011.58 1012.26 1012.88 1013.43 1013.88 1014.26 1014.54 1014.74 1014.87 1014.94 1014.96 1014.93 1014.88 1014.80 1014.72 1014.65 1014.59 1014.55 1014.56 1014.60 1014.69 1014.82 1014.98 1015.17 1015.36 1015.54 1015.69
1010.29 1010.01 1009.69 1009.36 1009.03 1008.71 1008.43 1008.23 1008.11 1008.11 1008.24 1008.51 1008.90 1009.40 1009.99 1010.64 1011.31 1011.97 1012.60 1013.18 1013.68 1014.09 1014.43 1014.67 1014.84 1014.94 1014.97 1014.95 1014.89 1014.80 1014.69 1014.57 1014.45 1014.34 1014.26 1014.22 1014.22 1014.27 1014.36 1014.48 1014.63 1014.80 1014.96 1015.11
1010.77 1010.44 1010.09 1009.74 1009.40 1009.09 1008.85 1008.69 1008.62 1008.67 1008.85 1009.14 1009.54 1010.04 1010.60 1011.21 1011.82 1012.42 1012.98 1013.49 1013.92 1014.27 1014.55 1014.74 1014.87 1014.92 1014.91 1014.85 1014.75 1014.61 1014.45 1014.28 1014.11 1013.95 1013.82 1013.72 1013.66 1013.65 1013.69 1013.76 1013.87 1014.00 1014.14 1014.27
1011.52 1011.15 1010.78 1010.41 1010.07 1009.78 1009.55 1009.42 1009.39 1009.47 1009.65 1009.95 1010.34 1010.80 1011.31 1011.84 1012.37 1012.88 1013.35 1013.77 1014.11 1014.39 1014.59 1014.72 1014.79 1014.80 1014.75 1014.65 1014.51 1014.33 1014.13 1013.92 1013.70 1013.49 1013.30 1013.14 1013.03 1012.96 1012.94 1012.96 1013.02 1013.11 1013.21 1013.31
1012.45 1012.07 1011.69 1011.32 1010.99 1010.71 1010.50 1010.38 1010.36 1010.43 1010.61 1010.88 1011.22 1011.61 1012.04 1012.48 1012.90 1013.30 1013.66 1013.96 1014.21 1014.40 1014.52 1014.59 1014.61 1014.58 1014.49 1014.37 1014.20 1014.00 1013.78 1013.53 1013.29 1013.04 1012.81 1012.61 1012.45 1012.33 1012.26 1012.23 1012.25 1012.29 1012.35 1012.42
1013.41 1013.05 1012.68 1012.33 1012.00 1011.74 1011.54 1011.43 1011.41 1011.47 1011.61 1011.83 1012.10 1012.40 1012.72 1013.04 1013.35 1013.62 1013.85 1014.05 1014.19 1014.29 1014.35 1014.36 1014.34 1014.28 1014.18 1014.05 1013.88 1013.68 1013.46 1013.22 1012.97 1012.72 1012.48 1012.26 1012.08 1011.93 1011.83 1011.76 1011.73 1011.73 1011.75 1011.77
1014.23 1013.91 1013.57 1013.25 1012.95 1012.71 1012.53 1012.42 1012.39 1012.43 1012.53 1012.68 1012.86 1013.07 1013.28 1013.47 1013.65 1013.80 1013.92 1014.00 1014.06 1014.08 1014.08 1014.06 1014.02 1013.95 1013.86 1013.75 1013.61 1013.44 1013.26 1013.05 1012.83 1012.61 1012.39 1012.19 1012.01 1011.86 1011.74 1011.66 1011.60 1011.56 1011.53 1011.51
1014.79 1014.50 1014.21 1013.93 1013.68 1013.47 1013.31 1013.21 1013.17 1013.19 1013.24 1013.33 1013.44 1013.55 1013.66 1013.74 1013.81 1013.85 1013.87 1013.86 1013.84 1013.82 1013.78 1013.74 1013.70 1013.65 1013.60 1013.53 1013.44 1013.34 1013.22 1013.08 1012.92 1012.76 1012.60 1012.44 1012.30 1012.18 1012.07 1011.98 1011.91 1011.84 1011.77 1011.70
1015.01 1014.78 1014.54 1014.31 1014.10 1013.93 1013.80 1013.72 1013.69 1013.69 1013.72 1013.76 1013.81 1013.84 1013.87 1013.86 1013.84 1013.80 1013.74 1013.68 1013.61 1013.55 1013.51 1013.48 1013.46 1013.45 1013.45 1013.45 1013.44 1013.41 1013.38 1013.33 1013.26 1013.18 1013.10 1013.01 1012.93 1012.85 1012.77 1012.70 1012.62 1012.53 1012.43 1012.29
Thickness
5804 5820 5828 5825 5823 5823 5818 5816 5810 5818 5821 5831 5841 5843 5843 5841 5839 5836 5831 5828 5825 5821 5817 5813 5809 5805 5801 5797 5793 5789 5782 5776 5771 5768 5765 5762 5758 5756 5753 5751 5750 5748 5746 5744
5787 5807 5816 5816 5824 5827 5823 5823 5821 5821 5822 5843 5845 5845 5839 5837 5835 5830 5828 5826 5824 5821 5816 5811 5806 5803 5799 5795 5791 5787 5780 5775 5771 5766 5763 5759 5755 5752 5750 5747 5746 5744 5742 5740
5770 5794 5799 5793 5815 5823 5826 5830 5826 5816 5825 5840 5836 5832 5832 5833 5832 5828 5826 5823 5821 5819 5814 5810 5806 5803 5796 5793 5789 5783 5778 5773 5769 5764 5760 5756 5753 5750 5747 5744 5741 5739 5737 5735
5763 5770 5757 5799 5836 5835 5827 5830 5836 5833 5835 5836 5832 5832 5834 5834 5831 5827 5825 5822 5818 5816 5812 5809 5806 5802 5796 5791 5786 5780 5775 5770 5766 5762 5757 5754 5750 5746 5743 5740 5737 5734 5732 5730
5752 5753 5767 5799 5824 5828 5818 5816 5835 5832 5833 5834 5834 5828 5821 5828 5828 5824 5823 5820 5817 5815 5810 5806 5802 5798 5792 5786 5781 5776 5771 5766 5763 5759 5754 5749 5745 5741 5738 5735 5732 5730 5728 5725
5742 5740 5748 5786 5821 5834 5821 5800 5829 5831 5828 5829 5824 5803 5799 5816 5819 5817 5816 5814 5812 5810 5806 5799 5796 5793 5786 5780 5776 5771 5768 5764 5760 5756 5750 5745 5741 5738 5735 5731 5728 5726 5722 5719
5729 5734 5757 5795 5815 5815 5781 5782 5813 5820 5819 5817 5808 5804 5805 5809 5808 5807 5805 5803 5801 5798 5794 5790 5788 5785 5778 5774 5769 5768 5764 5760 5755 5751 5746 5742 5737 5733 5730 5726 5723 5719 5716 5713
5725 5724 5741 5787 5795 5783 5777 5794 5800 5802 5805 5803 5801 5802 5801 5798 5795 5794 5791 5790 5789 5785 5781 5780 5779 5774 5768 5764 5764 5762 5757 5752 5748 5744 5741 5737 5731 5727 5723 5720 5716 5713 5709 5706
5737 5740 5762 5775 5777 5781 5786 5783 5786 5789 5793 5793 5790 5787 5786 5784 5783 5782 5780 5778 5777 5774 5770 5768 5767 5764 5757 5756 5755 5752 5748 5743 5739 5736 5732 5728 5723 5719 5715 5712 5709 5706 5703 5699
5736 5745 5754 5762 5767 5772 5775 5774 5779 5782 5783 5783 5777 5775 5772 5770 5769 5768 5766 5765 5764 5761 5757 5753 5753 5751 5748 5746 5745 5741 5736 5732 5729 5726 5722 5718 5715 5712 5708 5704 5702 5699 5695 5692
5723 5732 5737 5743 5750 5755 5761 5765 5767 5769 5770 5769 5765 5762 5760 5757 5755 5754 5752 5751 5749 5746 5742 5739 5738 5737 5736 5735 5732 5729 5725 5722 5719 5716 5713 5708 5703 5698 5696 5692 5690 5688 5687 5685
5704 5714 5718 5722 5736 5743 5745 5748 5752 5753 5753 5754 5753 5750 5749 5746 5744 5741 5739 5737 5735 5732 5729 5727 5725 5724 5723 5722 5720 5717 5714 5712 5710 5707 5704 5700 5694 5687 5681 5679 5676 5675 5673 5672
5701 5711 5716 5719 5726 5731 5732 5735 5739 5740 5740 5738 5739 5738 5736 5733 5731 5729 5726 5723 5721 5719 5717 5715 5712 5710 5710 5709 5708 5705 5703 5701 5700 5698 5695 5691 5687 5683 5676 5669 5665 5663 5661 5659
5693 5698 5700 5706 5710 5717 5720 5723 5725 5726 5727 5726 5725 5724 5722 5719 5718 5715 5712 5711 5709 5707 5705 5703 5700 5698 5697 5697 5695 5693 5692 5690 5688 5687 5684 5682 5678 5675 5671 5666 5661 5655 5649 5645
5681 5685 5688 5695 5699 5703 5706 5708 5707 5707 5708 5709 5710 5709 5707 5704 5702 5700 5699 5699 5697 5695 5693 5691 5688 5686 5686 5685 5683 5681 5680 5679 5677 5676 5674 5671 5668 5664 5661 5657 5653 5647 5641 5634
5668 5675 5680 5681 5682 5685 5689 5692 5692 5692 5695 5694 5693 5691 5691 5691 5688 5685 5685 5685 5682 5680 5678 5677 5675 5675 5674 5673 5671 5670 5668 5665 5664 5664 5663 5660 5657 5653 5649 5645 5641 5637 5632 5627
5652 5656 5660 5664 5669 5673 5677 5679 5681 5682 5684 5682 5681 5680 5679 5677 5675 5672 5670 5671 5670 5668 5667 5665 5663 5663 5663 5662 5661 5660 5658 5656 5652 5652 5650 5647 5645 5641 5637 5634 5630 5626 5622 5617
5648 5648 5653 5656 5658 5662 5666 5669 5671 5672 5670 5671 5670 5668 5666 5664 5662 5660 5659 5659 5658 5656 5656 5655 5654 5653 5650 5650 5649 5649 5648 5646 5643 5641 5638 5635 5633 5630 5626 5623 5619 5616 5612 5607
5639 5641 5647 5650 5652 5653 5655 5658 5659 5660 5659 5659 5657 5655 5653 5652 5652 5650 5650 5649 5647 5644 5643 5643 5641 5642 5640 5638 5637 5637 5637 5635 5633 5630 5627 5623 5621 5618 5615 5612 5609 5605 5602 5598
5631 5635 5637 5640 5644 5645 5644 5646 5648 5648 5649 5649 5647 5644 5642 5641 5641 5640 5639 5638 5636 5636 5634 5632 5632 5632 5630 5628 5626 5628 5626 5624 5621 5619 5616 5613 5611 5607 5604 5601 5598 5595 5592 5588
5622 5624 5627 5631 5633 5634 5634 5636 5638 5638 5638 5638 5637 5635 5633 5631 5631 5630 5629 5626 5624 5624 5622 5619 5621 5620 5619 5617 5615 5618 5616 5614 5611 5608 5605 5603 5600 5597 5594 5591 5588 5586 5583 5580
5613 5615 5618 5622 5622 5622 5625 5627 5629 5629 5629 5628 5628 5626 5624 5622 5622 5620 5619 5617 5614 5610 5612 5612 5610 5607 5607 5605 5608 5608 5606 5604 5601 5599 5596 5593 5590 5587 5584 5582 5580 5578 5575 5572
5605 5606 5608 5611 5613 5614 5616 5619 5620 5621 5620 5619 5618 5616 5615 5614 5613 5611 5607 5607 5606 5601 5602 5602 5597 5595 5594 5596 5599 5598 5597 5594 5592 5590 5587 5584 5582 5578 5576 5573 5571 5569 5567 5564
5597 5599 5600 5602 5605 5605 5606 5609 5611 5611 5611 5611 5610 5608 5606 5604 5604 5604 5601 5596 5594 5591 5593 5587 5586 5585 5583 5586 5588 5587 5586 5584 5582 5581 5579 5576 5574 5571 5569 5566 5564 5562 5560 5557
5590 5592 5594 5595 5596 5597 5598 5600 5601 5601 5601 5601 5599 5598 5598 5597 5594 5593 5592 5588 5584 5583 5582 5579 5577 5576 5576 5578 5578 5577 5575 5573 5572 5571 5570 5568 5566 5564 5562 5560 5558 5556 5554 5551
5584 5586 5587 5588 5590 5590 5592 5593 5592 5592 5592 5590 5588 5589 5588 5587 5585 5584 5582 5580 5578 5575 5574 5572 5571 5569 5570 5571 5570 5569 5567 5565 5564 5562 5560 5559 5557 5555 5554 5552 5550 5548 5546 5544
5579 5579 5580 5581 5583 5585 5587 5586 5585 5585 5585 5583 5581 5580 5580 5578 5577 5575 5574 5573 5571 5569 5568 5566 5566 5565 5564 5562 5561 5559 5558 5556 5555 5553 5551 5550 5548 5546 5544 5542 5540 5539 5536 5534